Lid_Strength_Index
2 2 1 1 1 1 1 1 2 2 2 3 4 5 5 5 6 11 13 12 11 5 7 11 11 13 13 13 13 10 13 14 12 12 11 10 10 10 10 9 10 10 9 11 12
2 2 2 2 1 1 1 1 1 2 2 2 3 3 4 5 9 12 10 7 5 5 12 12 13 14 16 15 14 13 15 13 10 9 10 11 12 11 13 13 12 12 12 13 12
1 2 2 2 2 2 1 2 1 1 1 2 2 2 3 5 15 15 6 4 5 6 12 11 13 14 17 16 16 14 15 12 12 11 12 13 14 12 14 14 12 11 11 13 13
2 2 2 3 3 2 2 2 2 1 2 2 2 2 3 9 18 13 4 4 4 9 11 12 13 16 17 18 16 17 14 13 11 12 14 14 13 14 14 11 11 11 11 14 13
3 3 3 3 3 3 3 2 2 2 2 2 3 4 10 16 15 9 4 5 8 9 12 12 14 15 17 16 15 15 15 14 13 13 14 15 15 15 15 12 12 13 13 14 13
4 4 4 4 4 4 3 3 3 2 3 2 4 5 15 19 13 11 11 9 9 11 12 12 13 12 14 14 15 14 14 15 14 14 15 16 16 16 14 12 13 14 14 14 14
5 5 5 5 5 4 4 3 3 3 4 4 4 6 15 16 13 13 11 12 11 11 12 11 12 12 12 14 13 14 16 16 15 15 15 16 17 18 14 13 14 14 13 14 14
6 6 6 6 6 5 5 4 4 3 5 5 5 11 17 13 14 13 13 13 12 11 12 11 11 12 13 13 14 16 16 17 14 15 15 15 17 14 14 15 15 15 15 16 15
6 6 6 6 6 6 6 5 3 5 5 5 11 17 18 10 14 13 14 14 13 13 13 11 12 13 14 15 16 17 19 18 16 14 16 17 18 14 15 16 16 16 16 16 15
5 5 5 5 5 5 5 4 4 7 8 8 13 17 15 16 15 13 14 13 15 15 15 15 16 17 17 16 19 18 19 18 18 15 17 18 19 16 14 16 16 15 16 17 16
5 5 5 5 5 3 5 9 9 11 13 15 15 16 15 14 13 14 13 13 14 16 19 17 19 20 18 14 17 17 18 18 17 16 17 18 17 16 14 15 16 15 15 14 15
5 5 4 4 4 5 7 8 11 11 15 10 10 9 9 13 15 15 12 15 16 18 18 19 20 17 17 17 16 17 18 18 17 16 17 18 19 17 15 15 15 15 15 14 14
5 4 4 4 4 8 9 9 7 7 13 12 10 10 10 12 12 13 13 15 17 18 18 19 18 17 17 18 18 18 17 18 17 17 18 19 19 17 17 16 15 14 14 14 14
5 5 5 5 9 10 9 7 7 7 14 14 13 12 14 13 15 14 13 14 17 18 18 18 18 18 19 19 18 19 18 17 17 18 22 20 23 19 17 16 16 15 14 14 14
5 5 5 5 9 11 9 8 8 7 24 16 14 12 14 14 15 15 12 14 17 18 18 19 19 18 19 19 18 19 19 19 19 20 21 22 22 21 19 18 16 15 14 14 15
5 6 6 8 9 9 8 8 8 14 21 17 15 16 16 15 15 14 14 14 14 17 18 18 18 18 18 18 18 18 19 19 21 22 26 22 21 20 19 18 17 15 14 13 13
5 6 8 8 11 8 9 12 16 19 16 19 18 15 16 16 16 16 16 17 18 20 20 19 19 18 17 18 17 18 20 24 27 28 25 24 23 19 17 16 16 15 15 14 14
5 6 8 9 9 9 11 17 21 23 20 13 14 15 17 16 16 16 17 19 16 17 20 20 22 19 18 18 18 19 19 22 26 26 24 22 24 20 18 16 16 15 14 14 14
6 12 12 10 8 9 14 21 24 17 15 17 15 17 21 16 15 17 18 19 17 16 19 22 20 18 17 18 17 19 20 19 22 26 24 21 20 18 16 16 16 15 15 14 14
13 14 13 9 7 9 19 18 17 13 13 14 18 15 18 17 17 17 17 16 16 15 16 17 21 18 18 17 19 19 17 21 22 27 28 22 22 20 16 16 16 16 16 15 15
13 17 13 9 10 16 24 22 14 11 10 13 16 16 15 16 14 15 16 15 14 15 13 16 16 20 18 20 19 20 21 21 20 21 23 25 21 18 18 16 17 17 16 16 16
14 22 12 9 19 26 22 13 9 10 7 9 10 13 14 15 16 15 15 13 10 13 16 14 16 20 21 19 18 18 18 19 22 24 23 22 21 16 16 16 16 17 16 16 16
15 18 12 12 23 22 16 12 10 10 10 9 11 10 10 14 18 16 16 14 13 14 12 13 15 24 18 17 18 22 19 18 18 20 23 23 21 17 17 17 17 17 16 15 15
15 22 19 17 15 13 15 14 13 8 9 8 9 9 11 13 12 15 15 13 14 14 11 11 14 16 17 17 19 22 21 18 17 20 19 19 19 18 18 18 18 17 16 16 16
18 20 19 21 17 20 14 11 11 11 9 7 10 9 12 16 15 15 14 14 14 13 14 14 17 14 13 14 17 19 20 19 19 17 18 16 18 17 17 17 18 17 17 18 18
17 17 14 19 19 15 16 13 11 10 12 12 12 10 10 13 13 16 14 14 16 14 15 15 19 16 15 13 13 15 14 18 16 16 15 16 17 16 16 17 18 18 18 18 18
16 13 14 16 20 17 16 12 10 8 8 9 10 10 11 10 9 10 10 11 11 14 15 16 16 19 20 16 15 17 14 18 15 14 14 17 14 14 16 18 19 19 19 19 18